User: anonymous   Login
Location: Unspecified
(0.0000°N, 0.0000°E)
Time: 23:17:09
(UTC+00:00)
Language:

TBA - TO BE ASSIGNED - Orbit

View from above orbital plane
View from above orbital plane
View from above satellite
View from above satellite

Ground track
Ground track

The orbit is defined by the following mean orbital elements,

1 68423U          26145.58377057 +.00000000 +00000-0 +23756-3 0 00002
2 68423  97.4489 104.3851 0002108  70.0842 290.0620 15.18613246    06
Epoch (UTC): 25 May 2026 14:00:37
Eccentricity: 0.0002108
inclination: 97.4489°
perigee height: 509 km
apogee height: 511 km
right ascension of ascending node: 104.3851°
argument of perigee: 70.0842°
revolutions per day: 15.18613246
mean anomaly at epoch: 290.0620°

The dashed part of the orbit path shows where the satellite is in the earth's shadow,  

DLR